TimeEST,TemperatureF,Dew PointF,Humidity,Sea Level PressureIn,VisibilityMPH,Wind Direction,Wind SpeedMPH,Gust SpeedMPH,PrecipitationIn,Events,Conditions,WindDirDegrees,DateUTC
12:53 AM,32.0,30.9,96,30.30,8.0,Calm,Calm,-,N/A,,Clear,0,2013-01-04 05:53:00
1:53 AM,30.0,28.9,96,30.30,8.0,NW,3.5,-,N/A,,Clear,320,2013-01-04 06:53:00
2:53 AM,28.9,28.0,96,30.31,9.0,Calm,Calm,-,N/A,,Clear,0,2013-01-04 07:53:00
3:53 AM,28.9,28.0,96,30.31,8.0,West,3.5,-,N/A,,Clear,280,2013-01-04 08:53:00
4:53 AM,28.9,27.0,92,30.32,9.0,West,5.8,-,N/A,,Clear,280,2013-01-04 09:53:00
5:53 AM,30.0,28.0,92,30.32,10.0,Calm,Calm,-,N/A,,Clear,0,2013-01-04 10:53:00
6:53 AM,28.9,27.0,92,30.32,10.0,Calm,Calm,-,N/A,,Clear,0,2013-01-04 11:53:00
7:37 AM,26.6,26.6,100,30.34,9.0,Calm,Calm,-,N/A,,Scattered Clouds,0,2013-01-04 12:37:00
7:46 AM,28.4,26.6,93,30.35,9.0,Calm,Calm,-,N/A,,Mostly Cloudy,0,2013-01-04 12:46:00
7:53 AM,28.9,28.0,96,30.35,8.0,Calm,Calm,-,N/A,,Mostly Cloudy,0,2013-01-04 12:53:00
8:13 AM,30.2,28.4,93,30.35,7.0,NNE,3.5,-,N/A,,Overcast,20,2013-01-04 13:13:00
8:26 AM,32.0,30.2,93,30.36,0.2,NNE,3.5,-,N/A,Fog,Fog,20,2013-01-04 13:26:00
8:53 AM,34.0,33.1,96,30.37,0.2,ENE,3.5,-,N/A,Fog,Fog,60,2013-01-04 13:53:00
8:55 AM,33.8,33.8,100,30.36,2.0,ENE,3.5,-,N/A,,Overcast,60,2013-01-04 13:55:00
8:59 AM,33.8,33.8,100,30.36,3.0,ENE,3.5,-,N/A,,Overcast,60,2013-01-04 13:59:00
9:53 AM,37.9,34.0,86,30.38,7.0,Calm,Calm,-,N/A,,Mostly Cloudy,0,2013-01-04 14:53:00
10:33 AM,41.0,37.4,87,30.39,7.0,Calm,Calm,-,N/A,,Scattered Clouds,0,2013-01-04 15:33:00
10:53 AM,44.1,37.9,79,30.40,8.0,Calm,Calm,-,N/A,,Clear,0,2013-01-04 15:53:00
11:53 AM,46.9,37.9,71,30.38,10.0,Calm,Calm,-,N/A,,Clear,0,2013-01-04 16:53:00
12:53 PM,50.0,37.9,63,30.35,10.0,South,4.6,-,N/A,,Clear,190,2013-01-04 17:53:00
1:53 PM,54.0,37.0,53,30.31,10.0,West,8.1,-,N/A,,Clear,270,2013-01-04 18:53:00
2:53 PM,55.0,34.0,45,30.30,10.0,West,4.6,-,N/A,,Clear,270,2013-01-04 19:53:00
3:53 PM,57.0,30.9,37,30.30,10.0,WNW,10.4,-,N/A,,Clear,300,2013-01-04 20:53:00
4:53 PM,54.0,28.9,38,30.30,10.0,NW,6.9,-,N/A,,Clear,310,2013-01-04 21:53:00
5:53 PM,50.0,26.1,39,30.32,10.0,NW,4.6,-,N/A,,Clear,310,2013-01-04 22:53:00
6:53 PM,48.0,23.0,37,30.34,10.0,NW,4.6,-,N/A,,Clear,310,2013-01-04 23:53:00
7:53 PM,46.0,23.0,40,30.35,10.0,NNW,6.9,-,N/A,,Clear,340,2013-01-05 00:53:00
8:53 PM,43.0,24.1,47,30.37,10.0,NNW,3.5,-,N/A,,Clear,330,2013-01-05 01:53:00
9:53 PM,41.0,24.1,51,30.38,10.0,North,6.9,-,N/A,,Clear,350,2013-01-05 02:53:00
10:53 PM,39.9,23.0,51,30.38,10.0,North,5.8,-,N/A,,Clear,360,2013-01-05 03:53:00
11:53 PM,34.0,26.1,73,30.38,10.0,NW,4.6,-,N/A,,Clear,320,2013-01-05 04:53:00